• METAR

    LHBP Budapest Liszt Ferenc repülőtér METAR

    LHBP 301830Z VRB02KT 9999 FEW050TCU SCT065 22/11 Q1005 NOSIG

    QNH légnyomás:1005hpa
    Hőmérséklet/temperature: 22°C
    Harmatpont/Dew Point Temp: 11°C

    LHDC Debreceni repülőtér METAR

    LHDC 301815Z AUTO 35008KT 300V030 9999 VCTS FEW012 BKN057 //////CB 19/15 Q1006 TEMPO VRB20G30KT 2500 TSRAGR SCT050CB BKN070

    QNH légnyomás:1005hpa
    Hőmérskélet/temperature: 19°C
    Harmatpont/Dew Point Temp: 15°C

    LHPR Győr-pér repülőtér METAR

    LHPR 301815Z AUTO VRB02KT 9999 BKN061 //////TCU 19/12 Q1005

    QNH légnyomás:1005hpa
    Hőmérskélet/temperature: 19°C
    Harmatpont/Dew Point Temp: 12°C

    lhsm Sármellék repülőtér METAR

    LHSM 301815Z AUTO 27004KT 240V300 CAVOK 21/14 Q1005

    QNH légnyomás:1005hpa
    Hőmérskélet/temperature: 21°C
    Harmatpont/Dew Point Temp: 14°C

    lhpp Pécs-pogány repülőtér METAR

    LHPP 301815Z AUTO 28005KT CAVOK 21/12 Q1006

    QNH légnyomás:1006hpa
    Hőmérskélet/temperature: 21°C
    Harmatpont/Dew Point Temp: 12°C

    LHKE Kecskemét repülőtér METAR

    LHKE 301815Z VRB01KT 9999 FEW050TCU SCT063 23/10 Q1005 NOSIG RMK BLU

    QNH légnyomás:1005hpa
    Hőmérskélet/temperature: 23°C
    Harmatpont/Dew Point Temp: 10°C

    LHSN Szolnok repülőtér METAR

    LHSN 301815Z 27003KT CAVOK 23/11 Q1004 NOSIG RMK BLU

    QNH légnyomás:1004hpa
    Hőmérskélet/temperature: 23°C
    Harmatpont/Dew Point Temp: 11°C

    LHUD szeged repülőtér METAR

    LHUD 032345Z 35004KT CAVOK 18/13 Q1019

    QNH légnyomás:1019hpa
    Hőmérskélet/temperature: 18°C
    Harmatpont/Dew Point Temp: 13°C

  • TÉRKÉPEK

    Felhőkép

    Széltérkép

    Hőtérkép

    radarkép

    map

    map

  • Műholdképek

    Magyarország műholdkép

    Europa műholdkép

    Europa szinoptikus térkép

  • ELTE ELŐREJELZÉS (2 NAP LHBP)

    2 napos légnyomás előrejelzés Budapest LHBP

    2 napos szél előrejelzés Budapest LHBP

    2 napos termik trigger előrejelzés Budapest LHBP

    2 napos felhőzet előrejelzés Budapest LHBP

    2 napos thermal index profile előrejelzés Budapest LHBP

    2 napos átlag emelés előrejelzés Budapest LHBP

    2 napos felhő alap előrejelzés Budapest LHBP

    2 napos hőmérséklet advekció előrejelzés Budapest LHBP

  • VILLÁMRADAR

  • ELŐREJELZÉS

  • WINDFINDER ELŐREJELZÉS

  • RIASZTÁS - VÉSZJELZÉS

Repülésmeteorológia, aktuális időjárási helyzet és előrejelzés

Repülésmeteorológia, várható időjárás jelentések, előrejelzések és riasztások. METAR, TAF adatok, aktuális időjárás helyzetek és térképek.

A meteorológia kialakulásában és fejlődésében kiemelt szerep jutott a repülésnek, illetve a repülés technikai fejlődésének. A repülésmeteorológia elsődlegesen a repülés biztonságát, másodlagosan a repülés gazdaságosságát hivatott szolgálni. Eleinte a katonai repülőgépeknek, később a polgári repülésnek, ma már a sportrepülő pilótáknak, és a mezőgazdasági pilótáknak is egyaránt szükségük van a naprakész meteorológiai információkra.

Repülésmeteorológia oldalunkon összegyűjtöttük a legnépszerűbb és legjobb időjárás oldalak hivatkozásait, hogy repülés előtt vagy akár közben minden fontos forrást egyszerűen és gyorsan megtalálj. Magyarország várható időjárása, légállapoti diagramok, termik előrejelzés, METAR adatok, vészjelzések és figyelmeztetések. A képernyő szélén közvetlenül pedig pozíciód aktuális időjárási paramétereit is megtalálod.

JOGI NYILATKOZAT

Az oldal használatával a látogató elfogadja az alábbi felhasználási feltételeket:

Az oldalon feltüntetett repülésmeteorológia információkat mindenki csak saját felelősségre használhatja. A feltüntetett külső forrásokból származó információk pontosságáért és tartalmáért, valamint az esetlegesen ebből adódó bármilyen káresemény kapcsán a FLYTIME.HU nem vállal felelősséget!